{"data":{"norad_id":61062,"intl_designator":"2024-164N","name":"STARLINK-11236 [DTC]","alt_names":[],"object_type":"PAYLOAD","status":"ACTIVE","operator":null,"country":"US","launch_date":"2024-09-13","launch_site_code":"AFWTR","launch_vehicle":null,"mission":null,"orbit_class":"UNKNOWN","rcs_meters":null,"size_class":null,"mass_kg":null,"dimensions":null,"purposes":["comms"],"wikipedia_slug":null,"has_3d_model":false,"image_url":null,"decayed_at":null,"tle_current":{"epoch":"2026-05-25T03:06:35.047584Z","epoch_age_seconds":67871,"freshness":"FRESH","line1":"1 61062U 24164N   26145.12957231  .00000885  00000+0  12159-4 0  9992","line2":"2 61062  53.1597 294.5149 0001035  82.8199 277.2937 15.69710804 97427","mean_motion":15.69710804,"eccentricity":0.0001035,"inclination_deg":53.1597,"raan_deg":294.5149,"arg_perigee_deg":82.8199,"mean_anomaly_deg":277.2937,"bstar":1.2159e-5,"rev_number":9742,"period_min":91.736643229475,"perigee_km":359.02708102048,"apogee_km":360.42181834056,"semimajor_km":6737.8614496805,"source":"CELESTRAK","updated_at":"2026-05-25T13:38:19.355934Z"}}}